Location: Ch�tillon
(48.8024°N, 2.2935°E)
Time: 22:05:35
(UTC+00:00)

COSMO-SKYMED 1 - Pass Details

Date: 16 October 2021
Orbit: 621 x 623 km, 97.9° (Epoch: 06 December)

Event Time Altitude Azimuth Distance (km) Brightness Sun altitude
Rises 18:38:15 0° 8° (N) 2,918 6.0 -17.1°
Reaches altitude 10° 18:40:31 10° 2° (N) 2,007 5.2 -17.4°
Maximum altitude 18:44:40 44° 291° (WNW) 862 3.7 -18.1°
Drops below altitude 10° 18:48:47 10° 219° (SW) 1,991 5.6 -18.8°
Sets 18:51:01 0° 213° (SSW) 2,892 6.3 -19.2°
